[[{"header":{"parameterUnit":"m.s-1","parameterCategory":1,"la1":30.2991,"la2":30.254,"lo1":-89.0895,"lo2":-89.0444,"dy":0.0017,"dx":0.0017,"nx":28,"ny":28,"refTime":"2024-06-02T21:00:00:Z","depth":0,"parameterNumber":2,"parameterNumberName":"U-component_of_WINDS"},"data":[0,0,0,0,0,0,0,0,0,0,0,0,0,0,0,0,0,0,0,0,0,0,0,0,0,0,0,0,0,0,0,0,0,0,0,0,0,0,0,0,0,0,0,0,0,0,0,0,0,0,0,0,0,0,0,0,0,0,-2.0159,-2.0159,0,-2.0111,-2.011,-2.011,-2.0057,-2.0056,-2.0055,-2.0055,-2.0006,-2.0005,-2.0005,0,0,0,0,0,0,0,0,0,0,0,0,0,-2.0207,-2.0207,-2.0159,-2.0159,-2.0158,-2.0111,-2.011,-2.011,-2.0057,-2.0056,-2.0055,-2.0054,-2.0006,-2.0005,-2.0004,0,0,0,0,0,0,0,0,0,0,0,0,0,-2.0175,-2.0206,-2.0159,-2.0126,-2.0123,-2.0111,-2.011,-2.011,-2.0057,-2.0056,-2.0055,-2.0054,-2.0006,-2.0005,-2.0004,-2.0022,0,0,-2.0002,-2.0001,0,0,0,0,0,0,0,0,-2.0177,-2.0174,-2.0132,-2.0128,-2.0124,-2.0089,-2.0109,-2.008,-2.0058,-2.0082,-2.0055,-2.0053,-2.0034,-2.0031,-2.0024,-2.002,-2.0018,-2.0002,-2.0001,-2.0001,-2.0,0,0,0,0,0,0,0,-2.018,-2.0176,-2.014,-2.0131,-2.0127,-2.0114,-2.0108,-2.0104,-2.0065,-2.008,-2.0076,-2.0071,-2.0032,-2.0025,-2.0023,-2.0017,-2.0002,-2.0001,-2.0,-2.0,-2.0025,-2.0026,0,0,0,0,0,0,-2.0187,-2.0178,-2.0142,-2.0139,-2.0149,-2.0114,-2.0108,-2.0101,-2.0065,-2.0058,-2.0072,-2.0069,-2.0028,-2.0024,-2.0021,-2.0039,-2.0001,-2.0,-1.9999,-2.0023,-2.0025,-2.0026,0,0,0,0,0,0,-2.0188,-2.0184,-2.0144,-2.0157,-2.0151,-2.0115,-2.0108,-2.0101,-2.0094,-2.0059,-2.0052,-2.0072,-2.0027,-2.0022,-2.0022,-2.0036,-1.9999,-1.9999,-2.0022,-2.0024,-2.0025,-2.0075,0,0,0,0,0,0,-2.019,-2.0185,-2.019,-2.0158,-2.015,-2.0145,-2.0109,-2.0101,-2.0093,-2.0088,-2.0057,-2.0051,-2.0025,-2.0024,-2.0021,-2.0034,-1.9998,-2.0021,-2.0023,-2.0025,-2.0072,-2.0078,-2.0084,0,0,0,0,0,-2.0191,-2.0206,-2.0191,-2.0187,-2.0157,-2.0146,-2.0142,-2.0112,-2.0094,-2.01,-2.0078,-2.0052,-2.0036,-2.0024,-2.0021,-2.0034,-2.0019,-2.0022,-2.0025,-2.0069,-2.0077,-2.0083,0,0,0,0,0,0,-2.0242,-2.0201,-2.0184,-2.0189,-2.0171,-2.0137,-2.0143,-2.0121,-2.0108,-2.0104,-2.0067,-2.0061,-2.0065,-2.005,-2.0038,-2.005,-2.0024,-2.0026,-2.0059,-2.0066,-2.0072,-2.0074,-1.9997,0,0,0,0,0,-2.0253,-2.0247,-2.0213,-2.022,-2.0213,-2.018,-2.0174,-2.0152,-2.0133,-2.0125,-2.0103,-2.0085,-2.0076,-2.007,-2.006,-2.007,-2.0063,-2.0078,-2.0084,-2.0089,-2.009,-2.0095,-2.0101,-2.0035,-2.0035,-2.0035,0,0,-2.0277,-2.0254,-2.0253,-2.023,-2.0214,-2.0209,-2.0174,-2.017,-2.0166,-2.0124,-2.0122,-2.0106,-2.0084,-2.0089,-2.009,-2.0076,-2.0108,-2.0092,-2.0096,-2.0095,-2.0098,-2.0104,-2.011,-2.0037,-2.0036,-2.0036,0,0,-2.0317,-2.03,-2.0304,-2.0289,-2.0265,-2.0244,-2.0245,-2.0215,-2.0202,-2.02,-2.0169,-2.0164,-2.0149,-2.0135,-2.0126,-2.0163,-2.0139,-2.0161,-2.0191,-2.0196,-2.0201,-2.0205,-2.0218,-2.0223,-2.0163,-2.0163,-2.0163,0,-2.035,-2.0341,-2.0309,-2.0307,-2.0298,-2.0261,-2.0266,-2.0253,-2.0227,-2.0222,-2.0207,-2.0188,-2.0171,-2.0172,-2.0181,-2.0175,-2.0176,-2.0163,-2.0203,-2.0207,-2.021,-2.0222,-2.0227,-2.0166,-2.0166,-2.0165,-2.0165,0,-2.0381,-2.0376,-2.0382,-2.0358,-2.035,-2.0352,-2.0321,-2.0317,-2.0297,-2.0277,-2.0276,-2.0254,-2.0239,-2.0238,-2.0218,-2.0237,-2.0229,-2.0209,-2.0182,-2.022,-2.023,-2.0234,-2.017,-2.0169,-2.0168,-2.0168,0,0,-2.0449,-2.0409,-2.0412,-2.0401,-2.0373,-2.0368,-2.0369,-2.0354,-2.0351,-2.0335,-2.0334,-2.0324,-2.0305,-2.0295,-2.0274,-2.0278,-2.0309,-2.0258,-2.0257,-2.0267,-2.0327,-2.0341,-2.0347,-2.0294,-2.0295,-2.0295,-2.0329,0,-2.0484,-2.0481,-2.0453,-2.0459,-2.0453,-2.0419,-2.042,-2.0403,-2.0385,-2.0379,-2.0359,-2.0352,-2.0329,-2.0322,-2.0325,-2.0304,-2.032,-2.0302,-2.0292,-2.0292,-2.0297,-2.0352,-2.0366,-2.0399,-2.0333,-2.0333,-2.0334,0,-2.0522,-2.0509,-2.0514,-2.0486,-2.0483,-2.0484,-2.0468,-2.0462,-2.0443,-2.043,-2.042,-2.0396,-2.0395,-2.0372,-2.037,-2.0358,-2.0354,-2.0343,-2.0344,-2.034,-2.0314,-2.0348,-2.0409,-2.0413,-2.034,-2.0339,-2.0339,0,-2.057,-2.0554,-2.0554,-2.0546,-2.0514,-2.0516,-2.0503,-2.0483,-2.0476,-2.0463,-2.0458,-2.0446,-2.0439,-2.043,-2.0404,-2.0389,-2.0405,-2.038,-2.0394,-2.0394,-2.0396,-2.0396,-2.0455,-2.0397,-2.0397,-2.0396,-2.0396,0,-2.061,-2.0614,-2.0575,-2.0575,-2.0579,-2.0549,-2.0553,-2.0537,-2.052,-2.0517,-2.0488,-2.0486,-2.0452,-2.0447,-2.0427,-2.0428,-2.0426,-2.0415,-2.0409,-2.0416,-2.0418,-2.0411,-2.0407,-2.0398,-2.0397,-2.0397,-2.0397,0,-2.0663,-2.0637,-2.0635,-2.0606,-2.0599,-2.0603,-2.0578,-2.0577,-2.0559,-2.0556,-2.0553,-2.0524,-2.0516,-2.049,-2.0475,-2.0462,-2.0469,-2.0459,-2.0475,-2.0471,-2.0486,-2.0485,-2.0541,-2.0547,-2.0487,-2.0487,-2.0488,0,-2.0689,-2.0691,-2.0662,-2.0658,-2.0646,-2.064,-2.0633,-2.0604,-2.0598,-2.0578,-2.0579,-2.0569,-2.0559,-2.0548,-2.0526,-2.0515,-2.0504,-2.0525,-2.0502,-2.0509,-2.0503,-2.0502,-2.0502,-2.0529,-2.053,-2.053,-2.0531,0,-2.0738,-2.0725,-2.0716,-2.0702,-2.0695,-2.0683,-2.067,-2.0668,-2.0636,-2.0631,-2.0622,-2.0615,-2.0601,-2.0591,-2.0577,-2.0564,-2.0542,-2.0539,-2.0541,-2.0547,-2.0556,-2.055,-2.0487,-2.0537,-2.0536,-2.0536,-2.0535,-2.0535,-2.0777,-2.0777,-2.0757,-2.0748,-2.0735,-2.0723,-2.0721,-2.0703,-2.0695,-2.0681,-2.0665,-2.0658,-2.0641,-2.0619,-2.0609,-2.0603,-2.0591,-2.0595,-2.0596,-2.0597,-2.06,-2.0559,-2.0601,-2.0601,-2.0601,-2.06,-2.06,0,-2.0823,-2.0809,-2.0801,-2.0783,-2.0776,-2.0757,-2.0742,-2.0737,-2.0731,-2.0717,-2.0708,-2.0699,-2.069,-2.0668,-2.0656,-2.0657,-2.0646,-2.0654,-2.0653,-2.065,-2.0612,-2.061,-2.0663,-2.0663,-2.0663,-2.0663,-2.0663,-2.0663,-2.0846,-2.0845,-2.0831,-2.0824,-2.081,-2.0803,-2.0795,-2.0785,-2.0773,-2.0764,-2.0756,-2.0742,-2.0725,-2.0712,-2.0703,-2.0697,-2.0694,-2.0705,-2.0696,-2.0659,-2.0653,-2.0647,-2.0646,-2.0705,-2.0705,-2.0734,-2.0735,-2.0735]},{"header":{"parameterUnit":"m.s-1","parameterCategory":1,"la1":30.2991,"la2":30.254,"lo1":-89.0895,"lo2":-89.0444,"dy":0.0017,"dx":0.0017,"nx":28,"ny":28,"refTime":"2024-06-02T21:00:00:Z","depth":0,"parameterNumber":3,"parameterNumberName":"V-component_of_WINDS"},"data":[0,0,0,0,0,0,0,0,0,0,0,0,0,0,0,0,0,0,0,0,0,0,0,0,0,0,0,0,0,0,0,0,0,0,0,0,0,0,0,0,0,0,0,0,0,0,0,0,0,0,0,0,0,0,0,0,0,0,4.5305,4.5305,0,4.5277,4.5276,4.5276,4.5214,4.5213,4.5212,4.5211,4.5183,4.5184,4.5184,0,0,0,0,0,0,0,0,0,0,0,0,0,4.5308,4.5308,4.5305,4.5305,4.5304,4.5277,4.5276,4.5276,4.5215,4.5213,4.5212,4.521,4.5183,4.5184,4.5184,0,0,0,0,0,0,0,0,0,0,0,0,0,4.5296,4.5308,4.5305,4.527,4.5267,4.5277,4.5276,4.5276,4.5215,4.5213,4.5211,4.5209,4.5183,4.5184,4.5184,4.5226,0,0,4.5186,4.5187,0,0,0,0,0,0,0,0,4.5297,4.5296,4.5276,4.5273,4.5269,4.5247,4.5267,4.5259,4.5215,4.5235,4.5211,4.5208,4.5206,4.5205,4.5204,4.5225,4.5224,4.5186,4.5187,4.5187,4.5187,0,0,0,0,0,0,0,4.5298,4.5297,4.5294,4.5276,4.5271,4.5257,4.5253,4.5265,4.5231,4.5233,4.5228,4.5226,4.5204,4.5203,4.5203,4.5223,4.5186,4.5187,4.5187,4.5188,4.5277,4.5279,0,0,0,0,0,0,4.5303,4.5298,4.5295,4.5293,4.5278,4.5258,4.5254,4.5256,4.5231,4.5225,4.5227,4.5223,4.5203,4.5202,4.5201,4.5248,4.5187,4.5188,4.5188,4.5275,4.5278,4.528,0,0,0,0,0,0,4.5303,4.5303,4.5296,4.5294,4.5292,4.526,4.5263,4.5257,4.5256,4.5227,4.5221,4.5233,4.5201,4.52,4.522,4.5247,4.5188,4.5189,4.5273,4.5276,4.5279,4.5343,0,0,0,0,0,0,4.5304,4.5304,4.5319,4.5295,4.5292,4.5315,4.5265,4.5257,4.5257,4.5251,4.523,4.5225,4.52,4.522,4.5221,4.5247,4.5189,4.5271,4.5274,4.5278,4.5339,4.5348,4.5356,0,0,0,0,0,4.5304,4.5339,4.532,4.532,4.5311,4.5317,4.5315,4.5285,4.5259,4.5274,4.5256,4.5226,4.5244,4.5222,4.5223,4.5249,4.5269,4.5273,4.5278,4.5335,4.5346,4.5356,0,0,0,0,0,0,4.5367,4.5335,4.5314,4.5342,4.5332,4.5306,4.5324,4.5298,4.5296,4.5291,4.5254,4.525,4.5275,4.5264,4.5241,4.5289,4.5251,4.5256,4.5295,4.5305,4.5314,4.5316,4.519,0,0,0,0,0,4.5385,4.5392,4.5363,4.539,4.5387,4.5357,4.5358,4.5336,4.5325,4.5321,4.5303,4.5295,4.5298,4.5301,4.5303,4.5337,4.5332,4.5356,4.5364,4.5372,4.5376,4.5394,4.5404,4.5295,4.5295,4.5294,0,0,4.542,4.5403,4.541,4.5403,4.5393,4.5401,4.5354,4.5365,4.5371,4.5322,4.534,4.5327,4.5315,4.5342,4.5353,4.5334,4.5406,4.5378,4.5384,4.5384,4.5399,4.541,4.5419,4.5298,4.5297,4.5297,0,0,4.5489,4.5477,4.5499,4.549,4.5475,4.5455,4.546,4.5438,4.5427,4.5444,4.5408,4.5415,4.5422,4.5414,4.5412,4.5478,4.5451,4.548,4.5526,4.5543,4.5552,4.5559,4.5583,4.5592,4.5485,4.5485,4.5485,0,4.5536,4.5546,4.5513,4.5526,4.5524,4.548,4.5502,4.5495,4.5482,4.5482,4.546,4.5468,4.5456,4.5481,4.5498,4.5497,4.5502,4.5482,4.5553,4.556,4.5567,4.5589,4.5598,4.5489,4.5488,4.5488,4.5487,0,4.5604,4.5612,4.5631,4.5619,4.562,4.5637,4.5607,4.5611,4.5589,4.5571,4.5589,4.5574,4.5572,4.5576,4.5555,4.5598,4.5586,4.556,4.5521,4.5581,4.5602,4.561,4.5494,4.5493,4.5491,4.5491,0,0,4.5712,4.5681,4.5689,4.5683,4.5664,4.567,4.5686,4.5683,4.5687,4.568,4.5692,4.5699,4.5674,4.5671,4.5649,4.5664,4.5718,4.5635,4.5634,4.5651,4.5765,4.5785,4.5795,4.5699,4.5701,4.5702,4.5766,0,4.5777,4.5801,4.5772,4.5803,4.581,4.5769,4.5782,4.5772,4.5756,4.5761,4.5743,4.5748,4.5715,4.5713,4.5726,4.5708,4.574,4.5703,4.5711,4.5711,4.5715,4.5806,4.5827,4.5888,4.5773,4.5775,4.5776,0,4.5855,4.5851,4.5883,4.5861,4.5863,4.5876,4.5871,4.5876,4.5864,4.5851,4.5848,4.5821,4.5835,4.5798,4.5818,4.5794,4.5795,4.5787,4.5788,4.5788,4.5747,4.5807,4.5906,4.5915,4.5788,4.5787,4.5786,0,4.5931,4.5933,4.5952,4.5949,4.5924,4.5934,4.5925,4.5911,4.5911,4.5907,4.5907,4.5905,4.5904,4.5904,4.5877,4.5852,4.59,4.586,4.589,4.589,4.5901,4.5901,4.6002,4.5903,4.5903,4.5902,4.5902,0,4.6006,4.6027,4.5986,4.5998,4.602,4.5987,4.601,4.5996,4.5984,4.5993,4.5957,4.5966,4.593,4.5936,4.5915,4.5934,4.5934,4.5924,4.5918,4.5927,4.5929,4.5928,4.5923,4.5905,4.5904,4.5904,4.5903,0,4.6094,4.6067,4.6086,4.6061,4.6055,4.6073,4.6052,4.6062,4.6044,4.6055,4.6056,4.6028,4.6032,4.6005,4.6005,4.5991,4.6021,4.6008,4.6025,4.602,4.6051,4.6048,4.6155,4.6167,4.606,4.6061,4.6062,0,4.6144,4.6159,4.6136,4.6139,4.6131,4.6136,4.6136,4.6104,4.6105,4.6093,4.6105,4.6106,4.6105,4.6115,4.6094,4.6094,4.6081,4.6118,4.608,4.6089,4.6081,4.608,4.6082,4.6126,4.6127,4.6128,4.6129,0,4.6235,4.6221,4.6222,4.6218,4.6219,4.6215,4.6208,4.6213,4.6178,4.6182,4.6185,4.6185,4.6184,4.6186,4.6182,4.6172,4.6145,4.6141,4.6147,4.6157,4.6166,4.6161,4.6046,4.6138,4.6138,4.6137,4.6136,4.6136,4.6305,4.6316,4.6302,4.6304,4.6296,4.6291,4.6299,4.6281,4.6284,4.628,4.6261,4.6269,4.6256,4.6247,4.6241,4.6246,4.6228,4.6238,4.6241,4.6244,4.6249,4.6165,4.6245,4.6245,4.6245,4.6245,4.6244,0,4.6394,4.6382,4.6385,4.6377,4.6379,4.6352,4.6344,4.6347,4.6354,4.6345,4.6344,4.6349,4.6351,4.633,4.633,4.6338,4.6325,4.6339,4.6338,4.6336,4.6265,4.6259,4.6349,4.6349,4.6349,4.6349,4.6349,4.6349,4.644,4.6458,4.6443,4.6456,4.6445,4.6451,4.6449,4.6444,4.6436,4.6442,4.6443,4.643,4.6416,4.6414,4.6414,4.6408,4.641,4.6428,4.6417,4.6351,4.6341,4.6331,4.6326,4.6428,4.6428,4.6488,4.6488,4.6489]}]]